Location: Fayetteville
(35.0530°N, 78.8790°W)
Time: 00:24:21
(UTC-05:00)

ISS - Visible Passes

Search period start: 26 February 2017 00:00
Search period end: 08 March 2017 00:00
Orbit: 399 x 408 km, 51.6° (Epoch: 26 February)

Date Brightness Start Highest point End Pass type
(mag) Time Alt. Az. Time Alt. Az. Time Alt. Az.
27 Feb -1.0 06:12:43 10° S 06:15:30 26° SE 06:18:19 10° ENE visible
28 Feb -0.2 05:21:41 10° SSE 05:23:10 13° SE 05:24:39 10° E visible
01 Mar -3.2 06:03:27 10° SW 06:06:44 76° SE 06:10:01 10° NE visible
02 Mar -1.8 05:12:45 21° S 05:14:15 33° SE 05:17:16 10° ENE visible
03 Mar -0.2 04:22:59 14° ESE 04:22:59 14° ESE 04:23:57 10° E visible
03 Mar -2.7 05:55:39 15° WSW 05:58:04 38° NW 06:01:11 10° NNE visible
04 Mar -3.3 05:05:40 75° NNE 05:05:40 75° NNE 05:08:44 10° NE visible
05 Mar 0.0 04:15:31 14° ENE 04:15:31 14° ENE 04:16:03 10° ENE visible
05 Mar -1.5 05:48:10 15° WNW 05:49:30 19° NNW 05:51:55 10° NNE visible
06 Mar -1.6 04:57:53 24° N 04:57:53 24° N 04:59:44 10° NNE visible
07 Mar -0.8 05:40:21 10° NW 05:41:03 10° NNW 05:41:45 10° NNW visible
